Temperature
17 16 16 15 15 14 13 13 13 13 12 12 12 12 11 11 11 11 11 11 11 11 11 11 11 11 12 12 12 12 12 12 12 12 12 12 12 12 13 13 14 14 14
18 17 16 16 15 14 14 13 13 13 12 12 12 11 11 11 11 11 10 10 10 10 11 11 11 11 11 11 11 11 11 11 12 12 12 12 11 11 12 12 12 12 13
17 17 16 16 15 14 14 13 13 13 12 12 12 11 11 11 11 10 10 10 10 10 11 11 11 11 11 11 11 11 11 11 12 12 12 12 11 11 11 12 12 12 12
18 17 16 16 15 14 14 13 13 13 12 12 11 11 11 11 10 10 10 10 11 10 11 11 11 12 12 12 11 11 11 12 12 12 12 12 11 10 11 11 11 11 12
18 17 17 16 15 15 14 13 13 13 12 12 11 11 11 11 11 11 11 11 11 11 11 11 11 12 12 12 12 12 12 12 13 12 12 11 11 10 11 11 11 11 11
18 17 17 16 16 15 14 13 13 12 12 12 11 11 11 11 11 11 11 11 11 11 11 12 12 12 12 12 12 12 12 12 13 12 12 11 11 10 11 11 11 12 12
18 18 17 16 16 15 14 13 13 12 12 12 11 11 11 11 11 12 12 12 12 12 12 12 12 12 12 12 12 12 12 12 12 12 12 12 11 11 11 11 12 12 12
18 18 17 16 15 15 14 13 13 12 12 12 11 11 11 11 11 12 12 12 12 12 12 12 12 12 12 12 12 12 12 12 12 12 12 12 12 11 11 12 12 12 12
17 17 16 16 15 14 14 13 13 12 12 12 11 11 11 11 11 11 12 12 12 12 12 12 12 12 12 12 12 12 12 12 12 12 12 12 11 11 11 12 12 12 12
17 16 16 16 15 14 14 13 12 12 12 11 11 11 11 11 11 11 11 11 11 11 11 11 11 11 11 11 11 11 11 11 11 11 11 11 11 11 11 11 11 11 12
16 16 15 15 15 14 14 13 12 12 11 11 11 11 11 11 11 11 11 11 11 11 11 11 11 11 11 11 11 11 11 11 11 11 11 11 11 11 11 10 11 11 11
16 16 15 15 14 14 14 13 12 12 11 11 11 10 10 10 10 10 10 10 10 10 10 10 10 10 10 10 10 10 10 10 10 10 10 10 10 10 10 10 10 10 10
16 16 15 15 14 14 13 13 12 11 11 11 10 10 10 10 10 10 10 10 9 9 9 9 9 9 9 9 10 10 10 10 10 10 10 10 10 10 9 9 9 9 9
16 16 15 15 14 13 13 13 12 11 11 11 10 10 10 10 9 9 9 9 9 9 9 9 9 9 9 9 9 9 9 9 9 9 9 9 9 9 9 9 8 8 8
16 16 15 15 14 13 13 12 12 11 11 10 10 10 9 9 9 9 9 8 8 8 8 8 8 8 8 8 8 8 8 8 8 8 8 8 8 8 9 8 8 8 7
16 16 15 15 14 13 12 12 11 11 10 10 10 9 9 9 9 9 8 8 8 8 8 8 7 7 7 7 7 7 7 7 7 8 8 8 8 8 8 8 8 7 7
16 16 15 14 14 13 12 12 11 11 10 10 10 9 9 9 9 8 8 8 8 8 7 7 7 7 7 7 7 7 7 7 7 8 8 8 8 8 8 8 8 7 7
16 15 15 14 13 13 12 11 11 10 10 10 10 9 9 9 8 8 8 8 8 7 7 7 7 7 7 7 7 7 7 7 8 8 8 8 8 8 8 8 8 7 7
16 15 14 14 13 12 12 11 11 10 10 10 9 9 9 9 8 8 8 8 8 7 7 7 7 7 6 6 6 7 7 7 8 8 8 8 8 8 8 8 7 7 7
15 15 14 13 13 12 11 11 10 10 10 9 9 9 9 9 8 8 8 8 7 7 7 7 7 7 6 6 6 7 7 7 8 8 8 8 7 7 7 7 7 6 6
14 14 14 13 13 12 11 11 10 10 10 10 9 9 9 9 8 8 8 8 7 7 7 7 7 7 7 6 6 6 7 8 8 7 7 7 7 7 6 6 6 6 6
14 14 13 13 13 12 12 11 11 10 10 10 10 9 9 9 9 8 8 8 7 7 7 7 6 6 6 6 5 5 4 5 5 5 6 6 6 6 6 5 5 5 5
14 14 13 13 13 12 12 11 11 10 10 10 10 9 9 9 8 8 8 7 7 7 7 6 6 6 6 6 5 4 3 3 3 4 4 5 4 4 4 4 4 4 4
13 13 13 13 13 12 12 11 11 11 10 10 9 9 9 8 8 7 7 7 7 6 6 6 6 6 5 5 5 4 4 3 2 2 3 3 3 3 4 4 4 4 4
13 13 13 12 12 12 12 11 11 11 10 10 9 8 8 8 7 7 7 7 6 6 6 6 6 5 5 5 4 4 3 3 2 1 1 2 2 3 2 2 3 3 3
12 12 12 12 12 12 11 11 11 10 10 9 9 8 8 7 7 7 6 6 6 6 6 5 5 5 5 4 4 3 3 2 2 1 0 0 0 1 1 1 2 2 2
Wind_Speed
7 16 19 17 16 14 13 13 12 12 12 12 13 13 13 13 13 13 13 13 13 13 14 14 15 14 14 14 14 14 15 15 17 17 17 16 16 16 16 15 15 15 16
10 20 21 19 17 15 14 13 13 12 12 12 12 12 12 12 12 12 12 12 12 12 13 13 13 13 13 13 13 13 13 14 15 15 16 15 15 15 15 15 15 14 15
15 21 21 19 18 16 15 14 13 12 11 11 11 11 11 11 11 11 11 11 11 12 12 12 12 12 12 12 12 12 13 13 13 14 14 15 13 13 14 14 14 14 14
20 21 21 21 19 17 16 15 13 12 11 10 10 10 11 10 10 10 10 11 11 11 11 11 11 11 11 11 10 11 11 11 12 12 14 14 12 11 12 12 12 12 12
19 21 21 22 19 18 16 15 14 12 11 11 10 10 10 9 9 9 9 9 10 10 10 10 10 10 10 9 9 10 11 12 11 11 12 13 13 10 10 10 11 11 10
15 21 22 22 20 18 17 15 14 13 12 11 10 9 9 9 8 8 8 8 8 8 8 8 8 8 8 8 8 8 9 11 11 10 10 11 11 9 9 8 8 8 9
13 20 22 23 21 19 18 16 14 13 12 11 10 9 8 8 8 7 7 6 6 6 6 6 7 7 7 6 6 6 7 8 9 8 7 7 8 7 7 7 6 6 6
15 19 20 22 21 19 18 17 15 14 12 11 9 8 8 7 7 6 5 5 4 4 4 4 4 4 4 4 5 5 5 6 6 5 4 4 5 5 5 5 5 5 5
16 16 17 20 20 20 18 17 16 14 13 11 10 9 8 7 6 6 5 4 3 2 2 1 1 2 2 3 4 4 5 5 5 4 4 5 6 6 5 5 5 5 5
10 12 15 17 18 18 18 17 16 15 13 12 10 9 8 7 6 5 6 5 4 3 2 2 2 3 3 4 5 5 6 6 5 6 7 8 8 9 8 8 8 8 8
10 9 12 14 16 17 17 17 17 16 14 13 11 11 10 8 7 6 7 7 7 6 5 5 5 5 6 6 7 8 8 7 7 8 10 10 11 12 12 11 11 11 12
12 12 9 12 15 16 15 15 15 15 14 13 12 11 11 10 9 8 9 10 10 8 8 7 8 8 8 7 9 10 10 10 10 11 12 12 13 14 14 14 14 14 15
13 13 12 12 15 15 12 13 13 13 13 13 12 12 11 10 9 8 8 10 10 10 9 9 9 9 9 10 11 12 13 13 13 14 14 14 16 17 17 17 17 17 17
11 14 13 12 13 14 14 12 12 11 11 11 13 13 12 9 7 7 8 9 9 10 9 10 10 12 12 13 13 13 14 14 15 16 17 17 18 19 20 20 20 20 20
11 13 13 11 11 13 12 11 12 11 12 13 14 14 13 10 8 8 8 9 10 11 10 10 10 11 11 11 11 11 12 14 16 17 17 18 20 21 22 22 22 22 22
11 12 12 12 12 13 10 8 10 12 12 12 12 13 14 12 10 8 7 8 9 10 11 11 10 9 8 8 8 9 10 12 14 16 18 19 21 23 24 24 24 24 23
10 10 11 12 11 11 9 10 10 11 11 10 11 13 13 12 11 9 6 6 8 9 8 7 7 6 5 5 5 7 9 11 12 15 18 18 20 21 23 24 25 25 24
8 9 9 10 10 9 8 8 8 8 8 8 9 10 11 11 11 9 6 5 7 6 4 3 3 3 4 4 5 5 7 10 12 15 17 18 18 18 20 23 24 25 24
8 9 8 8 9 8 7 7 7 7 6 5 5 5 5 6 7 6 4 4 4 2 2 2 2 2 4 5 5 6 5 6 9 13 13 16 17 18 18 20 22 23 24
7 8 9 8 8 7 5 5 4 4 4 3 3 3 2 2 3 3 3 2 2 1 1 2 3 2 3 4 5 6 6 7 7 7 9 12 14 16 16 17 18 19 21
7 8 8 8 7 7 4 4 4 3 2 2 2 2 2 1 1 1 1 1 1 1 2 2 2 3 3 2 3 5 6 6 6 6 6 6 9 13 14 14 15 16 17
6 7 8 8 7 7 5 4 3 3 2 1 1 1 1 1 1 2 1 1 0 1 2 3 2 2 3 1 1 4 5 5 4 4 5 5 6 8 8 11 13 15 16
7 7 7 8 8 7 6 5 5 4 3 2 2 1 2 1 1 1 2 1 0 0 2 3 2 2 3 3 2 2 3 5 5 5 5 5 5 5 5 11 14 17 19
6 6 7 7 7 7 7 6 6 4 3 2 1 0 2 3 1 0 1 1 0 1 2 3 2 2 3 4 3 3 5 5 4 6 4 4 7 8 8 8 11 16 19
6 6 7 7 7 6 6 7 7 4 3 2 1 2 2 3 3 2 0 0 1 2 3 4 4 3 3 4 4 4 4 4 6 7 9 7 5 6 7 7 9 14 18
6 6 7 8 6 6 7 7 7 7 5 4 2 1 1 2 2 3 2 2 3 3 4 4 4 5 4 5 5 4 4 5 5 6 9 11 11 7 7 7 8 10 17
Wind_Direction
186 179 169 162 156 151 144 134 126 117 112 107 102 96 91 88 86 83 79 76 72 68 65 64 64 66 66 67 66 63 60 59 57 53 53 60 64 63 62 61 55 50 54
162 172 167 162 159 154 146 137 129 124 118 111 107 102 97 92 88 85 81 78 76 73 69 67 66 67 67 67 68 66 62 62 63 55 47 42 56 61 59 59 60 58 57
154 167 165 163 159 155 148 141 136 131 124 118 113 108 104 98 93 89 86 82 78 75 73 70 68 67 67 67 68 65 59 59 65 57 43 30 38 59 58 58 57 58 57
157 164 164 164 161 158 152 148 143 137 132 127 120 116 109 104 99 94 90 86 81 78 76 73 70 68 67 65 65 60 55 58 64 57 42 29 26 55 56 54 54 55 55
157 162 165 166 164 161 157 153 148 143 139 134 129 123 115 109 104 98 94 90 86 81 78 75 72 69 66 64 62 56 54 58 58 53 42 29 19 50 55 51 49 49 49
156 162 168 167 166 164 160 157 154 151 146 141 136 131 125 118 112 107 102 97 92 86 81 77 73 69 65 62 59 53 51 54 52 50 40 27 12 38 49 46 42 41 40
157 164 170 169 168 166 164 162 160 156 153 151 148 143 137 130 124 120 114 107 99 92 86 80 73 68 64 58 53 46 41 45 50 47 34 18 8 25 32 32 29 28 27
160 165 171 172 171 169 168 167 165 164 162 160 158 155 150 145 141 138 133 124 114 103 90 81 72 62 54 46 37 29 25 29 39 35 14 354 347 355 7 8 1 359 1
161 164 170 173 173 173 173 172 171 171 171 170 170 169 166 163 164 164 162 160 156 146 125 84 46 24 10 4 359 356 355 357 6 347 324 305 303 311 318 319 318 318 319
160 165 168 171 172 174 176 176 175 176 178 179 180 178 179 184 192 194 193 197 204 211 221 249 285 304 312 314 316 319 323 327 326 315 303 291 290 295 297 297 295 293 293
167 171 169 168 171 173 176 181 179 182 185 186 187 185 186 195 209 224 216 218 227 235 246 260 274 286 293 295 297 299 299 296 296 293 289 284 287 290 292 291 290 288 287
178 180 176 173 172 174 179 183 183 185 190 190 190 190 192 201 214 230 236 233 237 244 254 267 276 282 288 287 286 288 283 276 275 276 277 279 284 289 290 289 287 285 284
180 181 182 179 176 176 179 180 183 184 188 193 195 197 201 208 220 233 237 239 241 249 256 267 279 282 279 277 276 276 271 266 265 266 269 274 283 288 289 289 288 286 284
178 185 183 181 179 181 180 181 184 185 189 196 202 206 205 206 213 218 220 226 233 242 249 256 263 269 271 273 272 269 267 262 262 264 267 271 280 285 288 289 289 288 287
182 184 182 180 180 181 178 182 186 190 194 202 209 214 212 206 207 211 218 226 234 240 245 250 254 259 263 269 271 266 263 263 264 266 268 273 279 284 287 288 288 288 288
185 179 177 179 179 175 176 179 184 191 196 201 209 214 214 212 212 211 220 228 236 240 243 245 247 249 255 262 270 272 270 272 272 273 274 276 279 284 286 287 288 289 289
181 170 169 174 171 171 172 176 180 187 193 200 210 216 216 216 217 217 222 234 244 246 246 248 254 254 260 266 272 281 281 281 281 281 281 279 279 282 285 287 288 289 289
162 159 161 164 159 162 163 165 168 176 185 197 207 211 214 217 220 219 223 237 251 256 258 259 260 274 275 278 282 284 285 286 283 282 282 280 279 279 282 286 288 289 289
150 148 144 144 150 153 147 145 140 142 148 165 178 188 201 213 220 216 222 240 254 263 280 283 279 265 283 287 286 282 277 273 275 280 279 281 281 279 279 284 287 289 289
122 127 128 127 135 131 119 110 103 99 100 112 129 150 166 192 216 210 216 241 257 276 308 311 296 285 272 281 293 290 280 273 272 271 277 285 287 286 285 284 286 288 291
105 115 122 123 128 129 124 123 118 114 96 81 101 116 115 143 192 187 219 277 303 277 279 288 293 300 295 298 318 310 295 286 283 276 277 283 288 292 295 294 293 290 291
120 120 120 124 127 128 129 130 128 125 112 96 47 51 59 151 175 169 173 202 290 304 311 309 299 298 293 311 303 324 324 325 329 294 282 276 278 295 303 308 309 301 295
131 136 132 130 127 124 123 112 91 74 57 40 21 353 342 329 200 179 178 175 204 216 282 290 279 256 282 297 191 219 291 289 302 286 282 275 289 294 293 298 296 295 295
151 140 130 129 126 126 126 128 133 139 151 186 191 322 350 13 16 87 159 154 198 257 280 284 271 244 245 280 281 228 228 245 277 301 292 280 279 279 276 281 284 285 286
149 142 135 127 124 125 123 129 127 127 142 130 89 55 17 6 10 4 358 1 309 293 284 287 291 271 238 248 257 259 261 255 233 257 288 289 283 259 260 262 270 275 277
144 141 139 135 133 132 129 132 136 140 140 127 105 69 9 349 347 351 338 315 301 292 284 282 278 277 264 260 260 253 253 260 264 259 279 293 292 283 263 255 259 266 271
Height
1554 1555 1556 1558 1559 1560 1561 1561 1561 1562 1562 1562 1562 1561 1561 1561 1560 1559 1559 1558 1558 1557 1557 1557 1556 1556 1555 1555 1555 1555 1554 1554 1553 1553 1553 1553 1552 1551 1551 1550 1550 1550 1550
1553 1554 1556 1558 1559 1560 1561 1561 1562 1562 1562 1563 1562 1562 1562 1561 1561 1560 1560 1559 1559 1558 1558 1557 1557 1556 1556 1556 1555 1555 1555 1555 1554 1554 1553 1553 1553 1552 1552 1551 1551 1551 1550
1553 1554 1556 1558 1559 1560 1561 1561 1562 1562 1563 1563 1563 1563 1562 1562 1562 1561 1560 1560 1559 1559 1558 1558 1557 1557 1556 1556 1556 1556 1556 1555 1555 1555 1554 1554 1554 1554 1553 1553 1552 1551 1551
1553 1554 1556 1557 1559 1560 1561 1562 1562 1563 1563 1563 1563 1563 1563 1563 1563 1562 1561 1561 1560 1560 1559 1559 1558 1558 1557 1557 1557 1557 1557 1556 1556 1556 1555 1555 1555 1555 1554 1553 1553 1552 1551
1552 1554 1556 1557 1559 1560 1561 1562 1563 1563 1563 1564 1564 1564 1564 1564 1563 1563 1562 1562 1561 1561 1560 1560 1559 1559 1559 1558 1558 1558 1558 1557 1557 1557 1556 1556 1556 1555 1555 1554 1553 1553 1552
1552 1554 1555 1557 1558 1560 1561 1562 1563 1563 1564 1564 1564 1564 1564 1564 1564 1564 1563 1563 1562 1562 1562 1561 1561 1560 1560 1560 1559 1559 1559 1558 1558 1558 1558 1557 1557 1556 1555 1555 1554 1553 1553
1552 1553 1555 1556 1558 1559 1561 1562 1562 1563 1564 1564 1565 1565 1565 1565 1565 1564 1564 1564 1564 1563 1563 1563 1562 1562 1562 1561 1561 1561 1560 1560 1559 1559 1559 1558 1557 1557 1556 1555 1555 1554 1553
1552 1553 1554 1556 1557 1559 1560 1561 1562 1563 1564 1564 1565 1565 1565 1565 1565 1565 1565 1565 1565 1565 1564 1564 1564 1563 1563 1563 1562 1562 1561 1561 1560 1560 1560 1559 1558 1558 1557 1556 1555 1555 1554
1552 1553 1554 1555 1556 1558 1560 1561 1562 1563 1564 1564 1565 1565 1565 1566 1566 1566 1566 1566 1566 1566 1565 1565 1565 1564 1564 1564 1563 1563 1562 1562 1561 1561 1560 1560 1559 1558 1557 1556 1556 1555 1554
1551 1552 1553 1554 1556 1557 1559 1560 1561 1562 1563 1564 1564 1565 1565 1566 1566 1566 1566 1566 1566 1566 1566 1566 1565 1565 1564 1564 1563 1563 1562 1562 1561 1561 1560 1559 1558 1558 1557 1556 1555 1554 1553
1549 1551 1552 1553 1555 1556 1558 1559 1560 1561 1562 1563 1564 1564 1565 1565 1565 1566 1566 1566 1566 1566 1565 1565 1565 1564 1564 1564 1563 1563 1562 1561 1560 1560 1559 1558 1557 1556 1555 1554 1554 1553 1552
1547 1549 1550 1552 1554 1555 1557 1558 1559 1560 1561 1562 1563 1564 1564 1564 1565 1565 1565 1565 1565 1565 1565 1564 1564 1563 1563 1562 1562 1561 1560 1560 1559 1558 1557 1556 1555 1554 1553 1553 1552 1551 1550
1545 1547 1549 1550 1552 1554 1555 1556 1558 1559 1560 1561 1562 1563 1563 1563 1564 1564 1564 1564 1564 1564 1564 1563 1563 1562 1561 1560 1560 1559 1558 1557 1556 1555 1555 1554 1552 1551 1551 1550 1549 1548 1547
1543 1544 1547 1549 1550 1552 1554 1555 1557 1558 1559 1560 1561 1561 1562 1562 1562 1563 1563 1563 1562 1562 1562 1562 1561 1560 1559 1558 1557 1556 1555 1554 1553 1552 1551 1550 1549 1548 1547 1546 1545 1544 1543
1540 1542 1544 1546 1548 1550 1552 1554 1555 1557 1558 1559 1559 1560 1561 1561 1561 1561 1561 1561 1561 1561 1560 1559 1559 1558 1557 1556 1554 1553 1552 1551 1549 1548 1547 1546 1545 1544 1542 1541 1540 1540 1539
1538 1540 1542 1544 1546 1548 1550 1552 1554 1555 1557 1557 1558 1559 1559 1559 1559 1559 1559 1559 1559 1559 1558 1557 1556 1555 1554 1552 1551 1550 1548 1547 1545 1544 1543 1542 1541 1539 1538 1536 1535 1534 1533
1535 1538 1540 1542 1544 1547 1549 1551 1553 1554 1555 1556 1557 1557 1558 1558 1558 1558 1557 1557 1557 1556 1555 1554 1553 1552 1550 1549 1548 1546 1545 1543 1541 1539 1538 1536 1535 1534 1532 1531 1530 1529 1528
1533 1536 1538 1541 1543 1545 1547 1549 1551 1552 1553 1554 1555 1556 1556 1556 1556 1555 1555 1555 1554 1553 1552 1551 1550 1548 1547 1545 1543 1541 1540 1538 1536 1534 1533 1532 1530 1528 1527 1526 1524 1523 1522
1531 1534 1537 1539 1541 1544 1546 1548 1550 1551 1552 1553 1553 1554 1554 1554 1553 1553 1552 1552 1551 1550 1549 1548 1546 1544 1542 1541 1538 1536 1534 1532 1531 1529 1528 1526 1525 1523 1522 1521 1520 1519 1517
1529 1532 1535 1537 1540 1542 1544 1546 1548 1549 1550 1551 1551 1551 1551 1551 1551 1550 1549 1549 1548 1546 1545 1544 1542 1540 1539 1536 1533 1531 1529 1527 1525 1524 1523 1522 1521 1520 1518 1517 1515 1514 1513
1528 1531 1533 1535 1538 1540 1542 1544 1546 1547 1548 1548 1549 1549 1548 1548 1547 1547 1546 1545 1544 1543 1542 1540 1538 1537 1535 1533 1529 1525 1523 1521 1519 1518 1518 1518 1517 1515 1514 1512 1510 1508 1507
1527 1529 1532 1534 1536 1538 1540 1542 1544 1545 1546 1546 1546 1546 1546 1545 1544 1544 1543 1542 1541 1540 1538 1537 1535 1533 1532 1530 1527 1522 1517 1514 1512 1513 1512 1511 1510 1509 1508 1506 1504 1502 1500
1526 1528 1531 1533 1535 1537 1539 1541 1542 1543 1544 1544 1544 1544 1544 1543 1542 1541 1540 1539 1538 1537 1536 1534 1532 1530 1528 1527 1525 1523 1519 1512 1508 1503 1503 1503 1503 1502 1501 1499 1497 1495 1493
1526 1528 1530 1532 1534 1536 1538 1539 1541 1541 1542 1542 1542 1542 1541 1541 1540 1539 1538 1537 1536 1534 1533 1531 1530 1527 1525 1523 1522 1520 1518 1514 1508 1499 1496 1497 1496 1494 1493 1491 1489 1487 1484
1525 1527 1530 1532 1534 1535 1537 1539 1540 1540 1541 1540 1540 1540 1539 1539 1538 1537 1536 1535 1533 1532 1530 1528 1526 1524 1522 1519 1517 1515 1512 1509 1506 1500 1490 1486 1485 1484 1483 1482 1480 1478 1475
1524 1527 1529 1531 1533 1535 1536 1537 1538 1539 1539 1539 1538 1538 1537 1536 1535 1534 1533 1532 1530 1529 1526 1524 1522 1520 1517 1515 1512 1509 1507 1503 1499 1495 1487 1480 1475 1474 1473 1472 1470 1468 1466